sat.trackr.live / text

‹ back to catalog

STARLINK-1443

NORAD 45660 · 2020-035D

PAYLOAD ACTIVE UNKNOWN

§ Identity

Operator
Country
US
Launch date
2020-06-04
Launch site
AFETR
Launch vehicle
Mass (kg)
RCS (m²)

Purposes: comms

External: N2YO · Heavens-Above · Gunter

§ Orbital elements

Epoch: 2026-05-25T02:11:49.136352Z

Period
94.05 min
Inclination
53.1333°
Eccentricity
0.0004417
Mean motion
15.31148191 rev/d
Perigee alt
469.4 km
Apogee alt
475.4 km
Semi-major
6,850.5 km
B*
1.2901e-3
RAAN
70.7918°
Arg perigee
59.8787°
Mean anomaly
300.2651°
Rev number
33,044

§ Raw data

STARLINK-14431 45660U 20035D   26145.09154093  .00039205  00000+0  12901-2 0  99932 45660  53.1333  70.7918 0004417  59.8787 300.2651 15.31148191330448

JSON: /api/v1/satellites/45660 · /tle

For live sub-satellite position, see the globe view (requires WebGL).

§ Visibility from observer

Set your observer location to see the next 7 days of passes ≥ 10°. The values pass through the URL so the page stays shareable.

No JS? Fill the form by hand. The geolocation button needs JavaScript.